Home / Local Weather & Traffic / California / Grapevine Past Weather

Grapevine, CA Past Weather

Last 30 Days

 
High: 75ºf @3:13 PM    Low: 58ºf @5:13 AM     Approx. Precipitation / Rain Total: 0 in.
Time (PDT)Temp. (ºf)Humidity (%)Dew Point (ºf)Barometer (inHG)Wind Speed (mph)Wind DirectionWind Gust (mph)1hr. Precip / Rain Total (in.)Snow Depth
3:13 PM753746.94-7.82n13.03--
2:13 PM743645.34-7.82n15.64--
10:13 AM684545.86-8.69n12.17--
8:13 AM675047.74-6.95n9.56--
7:13 AM645647.98-4.34n8.69--
5:13 AM586947.89-5.21n9.56--
4:13 AM596948.84-6.95n8.69--
3:13 AM606648.61-5.21n9.56--
1:13 AM645848.92-6.95n10.43--
12:13 AM655347.45-6.08n9.56--
High: 77ºf @1:13 PM    Low: 62ºf @3:13 AM     Approx. Precipitation / Rain Total: 0 in.
Time (PDT)Temp. (ºf)Humidity (%)Dew Point (ºf)Barometer (inHG)Wind Speed (mph)Wind DirectionWind Gust (mph)1hr. Precip / Rain Total (in.)Snow Depth
5:13 PM762739.59-7.82n12.17--
3:13 PM764049.92-6.95nne12.17--
2:13 PM773043.17-6.95nne10.43--
1:13 PM773244.86-6.08nne9.56--
10:13 AM763243.99-5.21ne6.95--
9:13 AM763647.1-2.61ene6.95--
7:13 AM684244.04-6.08nne7.82--
5:13 AM643535.8-4.34n6.08--
4:13 AM635245.09-5.21n8.69--
3:13 AM624439.83-6.95nne10.43--
1:13 AM672630.98-7.82n13.03--
12:13 AM712533.4-6.95n10.43--
High: 82ºf @4:13 PM    Low: 64ºf @5:13 AM     Approx. Precipitation / Rain Total: 0 in.
Time (PDT)Temp. (ºf)Humidity (%)Dew Point (ºf)Barometer (inHG)Wind Speed (mph)Wind DirectionWind Gust (mph)1hr. Precip / Rain Total (in.)Snow Depth
10:13 PM723038.86-6.95n9.56--
9:13 PM723038.86-6.08n8.69--
7:13 PM782134.89-6.95n12.17--
5:13 PM812339.69-6.95n14.77--
4:13 PM822036.95-6.08n13.9--
2:13 PM802944.86-7.82n13.9--
1:13 PM802742.99-8.69n13.9--
12:13 PM793145.76-7.82nne13.03--
8:13 AM723945.67-7.82nne12.17--
6:13 AM664544.04-6.95n8.69--
5:13 AM645246.02-5.21n7.82--
4:13 AM654643.71-6.08nne8.69--
3:13 AM673336.94-6.08nne9.56--
2:13 AM693137.1-6.95nne10.43--
1:13 AM712533.4-6.95nne10.43--
12:13 AM732434.07-6.95nne9.56--
High: 88ºf @12:13 PM    Low: 74ºf @4:13 AM     Approx. Precipitation / Rain Total: 0 in.
Time (PDT)Temp. (ºf)Humidity (%)Dew Point (ºf)Barometer (inHG)Wind Speed (mph)Wind DirectionWind Gust (mph)1hr. Precip / Rain Total (in.)Snow Depth
11:13 PM771118.47-3.48nne5.21--
9:13 PM782943.15-5.21n8.69--
8:13 PM802642.01-6.08n10.43--
6:13 PM852545.21-6.08n14.77--
5:13 PM862343.86-9.56n14.77--
12:13 PM881940.54-6.08nnw13.03--
11:13 AM872344.69-6.95n12.17--
8:13 AM813248.34-4.34n7.82--
7:13 AM783548.11-5.21nne6.95--
6:13 AM763042.31-3.48nnw6.08--
5:13 AM752637.78-5.21n6.08--
4:13 AM743040.59-3.48nnw5.21--
3:13 AM752637.78-3.48nnw5.21--
2:13 AM752940.57-3.48nnw5.21--
1:13 AM753444.71-4.34nnw6.08--
High: 89ºf @5:13 PM    Low: 71ºf @2:13 AM     Approx. Precipitation / Rain Total: 0 in.
Time (PDT)Temp. (ºf)Humidity (%)Dew Point (ºf)Barometer (inHG)Wind Speed (mph)Wind DirectionWind Gust (mph)1hr. Precip / Rain Total (in.)Snow Depth
11:13 PM734449.78-5.21n7.82--
10:13 PM744148.79-5.21n7.82--
9:13 PM753847.65-6.08n9.56--
8:13 PM773345.67-6.08n8.69--
7:13 PM813550.74-5.21nnw10.43--
6:13 PM823551.62-5.21n13.03--
5:13 PM891941.35-6.08nnw12.17--
4:13 PM882446.65-5.21nnw11.3--
2:13 PM813449.96-5.21n12.17--
1:13 PM833149.22-6.08n10.43--
12:13 PM862849.06-6.08ne10.43--
11:13 AM853655.02-5.21n8.69--
10:13 AM853150.94-5.21nne7.82--
9:13 AM813147.49-5.21nne6.08--
7:13 AM763546.35-3.48nnw9.56--
6:13 AM773647.98-4.34nw7.82--
5:13 AM716056.4-4.34nw7.82--
3:13 AM715855.47-5.21n7.82--
2:13 AM715453.5-6.08n8.69--
1:13 AM744752.47-6.08-9.56--
12:13 AM764653.71-5.21n6.95--
High: 87ºf @2:13 PM    Low: 74ºf @4:13 AM     Approx. Precipitation / Rain Total: 0 in.
Time (PDT)Temp. (ºf)Humidity (%)Dew Point (ºf)Barometer (inHG)Wind Speed (mph)Wind DirectionWind Gust (mph)1hr. Precip / Rain Total (in.)Snow Depth
11:13 PM774050.81-5.21n9.56--
10:13 PM784152.37-5.21n7.82--
9:13 PM774151.48-5.21n6.95--
8:13 PM784152.37-5.21n7.82--
5:13 PM872950.86-5.21n10.43--
4:13 PM873051.78-6.95n10.43--
2:13 PM873253.54-6.95n13.03--
1:13 PM853150.94-6.95n10.43--
12:13 PM863252.67-5.21nne8.69--
11:13 AM833350.9-6.08nne8.69--
4:13 AM743947.46-4.34n6.08--
3:13 AM753948.35-3.48n6.08--
2:13 AM753948.35-3.48n6.95--
1:13 AM754049.02-5.21n9.56--
12:13 AM764452.49-7.82nne10.43--
High: 87ºf @6:13 PM    Low: 74ºf @2:13 AM     Approx. Precipitation / Rain Total: 0 in.
Time (PDT)Temp. (ºf)Humidity (%)Dew Point (ºf)Barometer (inHG)Wind Speed (mph)Wind DirectionWind Gust (mph)1hr. Precip / Rain Total (in.)Snow Depth
11:13 PM793448.21-3.48nnw6.08--
10:13 PM793649.74-3.48nnw6.08--
9:13 PM793548.99-3.48n6.08--
8:13 PM803449.09-2.61nnw8.69--
6:13 PM873152.67-4.34n9.56--
9:13 AM852949.15-2.61nw6.95--
8:13 AM823148.35-2.61ne5.21--
7:13 AM783447.34-3.48n6.08--
2:13 AM744249.44-3.48nnw6.08--
1:13 AM743947.46-3.48n6.08--
12:13 AM763243.99-4.34n7.82--
High: 89ºf @5:13 PM    Low: 73ºf @5:13 AM     Approx. Precipitation / Rain Total: 0 in.
Time (PDT)Temp. (ºf)Humidity (%)Dew Point (ºf)Barometer (inHG)Wind Speed (mph)Wind DirectionWind Gust (mph)1hr. Precip / Rain Total (in.)Snow Depth
11:13 PM773547.23-3.48nnw6.08--
10:13 PM773647.98-3.48nnw6.95--
9:13 PM784051.7-3.48n7.82--
7:13 PM852848.21-4.34n9.56--
5:13 PM892851.62-4.34n12.17--
3:13 PM882951.72-6.08nne13.03--
12:13 PM862849.06-6.95ne10.43--
11:13 AM862647.09-6.95nne10.43--
9:13 AM842746.39-4.34nnw6.95--
8:13 AM823148.35-4.34n6.95--
7:13 AM793750.48-2.61nnw5.21--
5:13 AM734147.89-3.48nnw5.21--
3:13 AM744249.44-3.48nnw6.08--
2:13 AM763848.54-4.34n7.82--
High: 88ºf @4:13 PM    Low: 73ºf @5:13 AM     Approx. Precipitation / Rain Total: 0 in.
Time (PDT)Temp. (ºf)Humidity (%)Dew Point (ºf)Barometer (inHG)Wind Speed (mph)Wind DirectionWind Gust (mph)1hr. Precip / Rain Total (in.)Snow Depth
10:13 PM793750.48-3.48n6.08--
8:13 PM813449.96-4.34n9.56--
7:13 PM853251.8-4.34n10.43--
6:13 PM873455.2-6.08n12.17--
5:13 PM883355.25-6.08n12.17--
4:13 PM883254.4-6.08n13.9--
3:13 PM883355.25-6.95n13.03--
2:13 PM873656.78-7.82n13.03--
11:13 AM863857.4-5.21n10.43--
7:13 AM784756.11-3.48nne5.21--
5:13 AM735053.25-4.34n6.95--
3:13 AM745054.16-4.34n6.08--
2:13 AM754753.38-3.48n7.82--
1:13 AM774453.4-6.08n8.69--
12:13 AM783951.01-4.34nnw9.56--
High: 85ºf @12:13 PM    Low: 74ºf @4:13 AM     Approx. Precipitation / Rain Total: 0 in.
Time (PDT)Temp. (ºf)Humidity (%)Dew Point (ºf)Barometer (inHG)Wind Speed (mph)Wind DirectionWind Gust (mph)1hr. Precip / Rain Total (in.)Snow Depth
11:13 PM793649.74-4.34nnw9.56--
10:13 PM794253.92-3.48nnw6.95--
9:13 PM794153.26-3.48n6.08--
8:13 PM803952.79-4.34n7.82--
7:13 PM833754.01-5.21-10.43--
12:13 PM853957.23-6.95nne11.3--
11:13 AM853856.51-5.21ne8.69--
10:13 AM843754.89-6.08ne8.69--
8:13 AM823753.13-4.34ne7.82--
7:13 AM784554.92-5.21n6.95--
4:13 AM745054.16-3.48n6.08--
3:13 AM745154.71-4.34n6.08--
2:13 AM745154.71-4.34n6.08--
1:13 AM754853.96-3.48nnw5.21--
High: 86ºf @11:13 AM    Low: 67ºf @3:13 AM     Approx. Precipitation / Rain Total: 0 in.
Time (PDT)Temp. (ºf)Humidity (%)Dew Point (ºf)Barometer (inHG)Wind Speed (mph)Wind DirectionWind Gust (mph)1hr. Precip / Rain Total (in.)Snow Depth
11:13 PM765056-2.61nw6.08--
10:13 PM765257.08-5.21nne6.08--
9:13 PM775157.47-3.48nnw5.21--
7:13 PM804657.34-5.21n9.56--
5:13 PM844157.73-5.21nne13.03--
4:13 PM844258.41-7.82n13.9--
1:13 PM854158.63-6.08nne10.43--
12:13 PM853957.23-5.21nne10.43--
11:13 AM863857.4-4.34e8.69--
8:13 AM774855.79-3.48nne7.82--
6:13 AM687057.84-6.95n8.69--
4:13 AM676554.84-5.21n7.82--
3:13 AM676755.67-6.08n10.43--
1:13 AM686154.04-6.08-9.56--
12:13 AM695451.65-6.95n11.3--
High: 81ºf @5:13 PM    Low: 63ºf @5:13 AM     Approx. Precipitation / Rain Total: 0 in.
Time (PDT)Temp. (ºf)Humidity (%)Dew Point (ºf)Barometer (inHG)Wind Speed (mph)Wind DirectionWind Gust (mph)1hr. Precip / Rain Total (in.)Snow Depth
7:13 PM764955.44-6.95n12.17--
6:13 PM794555.82-6.08n13.03--
5:13 PM814255.72-6.08n12.17--
2:13 PM804556.73-6.95n13.03--
12:13 PM774755.2-7.82n13.03--
11:13 AM774855.79-6.08n9.56--
9:13 AM754753.38-5.21n9.56--
7:13 AM705955-4.34nnw6.08--
6:13 AM656854.17-4.34nnw7.82--
5:13 AM636952.66-4.34nnw7.82--
4:13 AM646652.41-6.08n9.56--
3:13 AM656352.09-6.95n9.56--
1:13 AM665750.32-4.34nnw7.82--
12:13 AM685450.72-6.08n8.69--
High: 76ºf @4:13 PM    Low: 59ºf @6:13 AM     Approx. Precipitation / Rain Total: 0 in.
Time (PDT)Temp. (ºf)Humidity (%)Dew Point (ºf)Barometer (inHG)Wind Speed (mph)Wind DirectionWind Gust (mph)1hr. Precip / Rain Total (in.)Snow Depth
11:13 PM685249.71-6.08n9.56--
10:13 PM695049.58-4.34nnw8.69--
8:13 PM694546.76-4.34n9.56--
7:13 PM734349.17-5.21n9.56--
6:13 PM744350.07-6.08nne9.56--
4:13 PM764150.58-6.08n12.17--
2:13 PM764251.23-7.82-12.17--
9:13 AM714749.74-3.48nw7.82--
8:13 AM674846.65-4.34nnw8.69--
7:13 AM635847.99-6.95n9.56--
6:13 AM596446.84-7.82n9.56--
4:13 AM605443.3-6.08n8.69--
3:13 AM605141.82-4.34n7.82--
2:13 AM614438.93-4.34n9.56--
1:13 AM623936.76-6.08n8.69--
12:13 AM633736.32-6.95n9.56--
High: 74ºf @4:13 PM    Low: 60ºf @2:13 AM     Approx. Precipitation / Rain Total: 0 in.
Time (PDT)Temp. (ºf)Humidity (%)Dew Point (ºf)Barometer (inHG)Wind Speed (mph)Wind DirectionWind Gust (mph)1hr. Precip / Rain Total (in.)Snow Depth
11:13 PM643737.2-5.21n9.56--
10:13 PM653738.09-6.08n9.56--
7:13 PM713743.4-6.08n12.17--
6:13 PM733644.45-6.08n12.17--
4:13 PM743544.6-6.95nnw13.03--
2:13 PM733543.72-6.95n13.9--
1:13 PM723844.99-6.95n12.17--
11:13 AM704547.67-6.08nnw10.43--
8:13 AM645246.02-6.08n10.43--
7:13 AM635847.99-5.21n7.82--
2:13 AM605845.18-5.21n7.82--
High: 69ºf @5:13 PM    Low: 51ºf @5:13 AM     Approx. Precipitation / Rain Total: 0 in.
Time (PDT)Temp. (ºf)Humidity (%)Dew Point (ºf)Barometer (inHG)Wind Speed (mph)Wind DirectionWind Gust (mph)1hr. Precip / Rain Total (in.)Snow Depth
5:13 PM694446.17-6.95nnw12.17--
4:13 PM694446.17-6.95n13.03--
2:13 PM684143.41-9.56n14.77--
9:13 AM634340.15-3.48ne7.82--
8:13 AM595241.4-6.08ne9.56--
6:13 AM536340.75-5.21n8.69--
5:13 AM516238.44-6.95n8.69--
12:13 AM525536.34-6.95n8.69--
High: 62ºf @4:13 PM    Low: 44ºf @4:13 AM     Approx. Precipitation / Rain Total: 0 in.
Time (PDT)Temp. (ºf)Humidity (%)Dew Point (ºf)Barometer (inHG)Wind Speed (mph)Wind DirectionWind Gust (mph)1hr. Precip / Rain Total (in.)Snow Depth
10:13 PM535336.33-4.34n6.95--
9:13 PM535637.73-5.21n7.82--
8:13 PM545437.73-5.21n10.43--
4:13 PM624942.62-7.82n13.03--
2:13 PM605242.32-6.95n14.77--
1:13 PM595542.85-7.82n13.9--
11:13 AM556141.8-7.82nne11.3--
10:13 AM545538.2-6.95nne10.43--
9:13 AM555539.13-5.21n8.69--
8:13 AM516539.65-6.08n9.56--
7:13 AM497039.65-5.21n9.56--
6:13 AM457738.23-5.21n8.69--
5:13 AM447536.59-5.21n9.56--
4:13 AM447335.91-6.08n10.43--
3:13 AM457136.17-6.95n10.43--
2:13 AM456935.45-7.82n12.17--
1:13 AM466534.9-7.82n13.03--
12:13 AM475833-9.56n13.03--
High: 56ºf @6:13 PM    Low: 36ºf @5:13 AM     Approx. Precipitation / Rain Total: 0 in.
Time (PDT)Temp. (ºf)Humidity (%)Dew Point (ºf)Barometer (inHG)Wind Speed (mph)Wind DirectionWind Gust (mph)1hr. Precip / Rain Total (in.)Snow Depth
11:13 PM475732.57-9.56n13.03--
10:13 PM475933.42-6.95n10.43--
9:13 PM476234.66-5.21n10.43--
7:13 PM534532.23-6.08n12.17--
6:13 PM564032.02-6.08nnw14.77--
2:13 PM554534.05-8.69n17.38--
1:13 PM524832.92-9.56n14.77--
5:13 AM369334.18-2.61n9.56--
4:13 AM369434.44-6.08n9.56--
3:13 AM369735.23-6.95n12.17--
2:13 AM379335.17-6.08n9.56--
1:13 AM398534.88-5.21n12.17--
12:13 AM417132.33-6.95n14.77--
High: 53ºf @6:13 PM    Low: 40ºf @7:13 AM     Approx. Precipitation / Rain Total: 0 in.
Time (PDT)Temp. (ºf)Humidity (%)Dew Point (ºf)Barometer (inHG)Wind Speed (mph)Wind DirectionWind Gust (mph)1hr. Precip / Rain Total (in.)Snow Depth
11:13 PM456333.17-4.34sse8.69--
10:13 PM467036.77-4.34w9.56--
8:13 PM476535.85-4.34n8.69--
6:13 PM536240.33-6.08n12.17--
2:13 PM449542.66-4.34n7.82--
1:13 PM429640.94-4.34-8.69--
12:13 PM429540.67-6.08n10.43--
11:13 AM429239.85-6.08n12.17--
10:13 AM429540.67-6.08n9.56--
8:13 AM419940.74-4.34n7.82--
7:13 AM4010040-4.34n8.69--
6:13 AM409939.74-6.08n13.9--
5:13 AM409037.31-7.82n13.9--
3:13 AM449141.54-4.34n11.3--
2:13 AM448138.55-9.56n14.77--
1:13 AM496939.28-7.82n10.43--
12:13 AM496939.28-6.08n10.43--
High: 57ºf @4:13 PM    Low: 42ºf @8:13 AM     Approx. Precipitation / Rain Total: 0 in.
Time (PDT)Temp. (ºf)Humidity (%)Dew Point (ºf)Barometer (inHG)Wind Speed (mph)Wind DirectionWind Gust (mph)1hr. Precip / Rain Total (in.)Snow Depth
11:13 PM507040.61-6.08n10.43--
10:13 PM507642.74-6.95-8.69--
7:13 PM547144.81-6.95n12.17--
6:13 PM566745.2-6.95n14.77--
5:13 PM576143.68-6.95n14.77--
4:13 PM575641.46-8.69n16.51--
2:13 PM565439.59-9.56n14.77--
1:13 PM556141.8-7.82n14.77--
12:13 PM536240.33-8.69n13.9--
11:13 AM506739.48-8.69n13.9--
8:13 AM4210042-6.95n10.43--
6:13 AM4410044-6.95nne10.43--
4:13 AM4710047-5.21n10.43--
3:13 AM499948.73-6.95n12.17--
1:13 AM529049.16-6.95n12.17--
12:13 AM538448.3-8.69n13.9--
High: 67ºf @3:13 PM    Low: 49ºf @2:13 AM     Approx. Precipitation / Rain Total: 0 in.
Time (PDT)Temp. (ºf)Humidity (%)Dew Point (ºf)Barometer (inHG)Wind Speed (mph)Wind DirectionWind Gust (mph)1hr. Precip / Rain Total (in.)Snow Depth
11:13 PM557446.87-8.69n13.03--
10:13 PM576545.35-6.95n10.43--
9:13 PM586847.5-5.21n12.17--
5:13 PM656452.52-6.95n14.77--
3:13 PM676253.54-6.95n12.17--
1:13 PM646752.82-6.08nne13.03--
12:13 PM626951.71-6.95n12.17--
11:13 AM607150.57-7.82nne14.77--
10:13 AM606749.01-8.69n14.77--
8:13 AM597149.61-4.34nne9.56--
6:13 AM508746.28-6.08n7.82--
2:13 AM496638.14-7.82n11.3--
1:13 AM526239.39-7.82n13.9--
12:13 AM536541.55-10.43-14.77--
High: 68ºf @3:13 PM    Low: 52ºf @5:13 AM     Approx. Precipitation / Rain Total: 0 in.
Time (PDT)Temp. (ºf)Humidity (%)Dew Point (ºf)Barometer (inHG)Wind Speed (mph)Wind DirectionWind Gust (mph)1hr. Precip / Rain Total (in.)Snow Depth
8:13 PM613533.15-6.95n10.43--
7:13 PM653939.43-6.08n13.9--
6:13 PM663940.33-6.95n14.77--
4:13 PM683640.04-7.82n13.9--
3:13 PM684042.77-7.82n13.9--
2:13 PM664544.04-7.82nne13.9--
1:13 PM654241.34-6.95n13.9--
11:13 AM624842.08-7.82n11.3--
9:13 AM615142.74-5.21n9.56--
5:13 AM526440.2-3.48n6.08--
4:13 AM536340.75-4.34n8.69--
2:13 AM555740.05-6.08n9.56--
1:13 AM575340.04-6.95n10.43--
12:13 AM584938.95-6.08n16.51--
High: 76ºf @4:13 PM    Low: 61ºf @3:13 AM     Approx. Precipitation / Rain Total: 0 in.
Time (PDT)Temp. (ºf)Humidity (%)Dew Point (ºf)Barometer (inHG)Wind Speed (mph)Wind DirectionWind Gust (mph)1hr. Precip / Rain Total (in.)Snow Depth
11:13 PM624138.03-7.82nne13.9--
10:13 PM653234.42-5.21n8.69--
8:13 PM673034.54-1.74nnw7.82--
4:13 PM762537.62-6.08nne13.03--
12:13 PM733039.72-6.08nne10.43--
9:13 AM732535.09-3.48n6.95--
7:13 AM663134.49-4.34nnw6.95--
6:13 AM623534.03-4.34nnw7.82--
4:13 AM623634.74-4.34nnw7.82--
3:13 AM613935.86-3.48n8.69--
2:13 AM623836.1-6.08n9.56--
1:13 AM643334.32-5.21n8.69--
12:13 AM662831.96-5.21n7.82--
High: 77ºf @5:13 PM    Low: 60ºf @5:13 AM     Approx. Precipitation / Rain Total: 0 in.
Time (PDT)Temp. (ºf)Humidity (%)Dew Point (ºf)Barometer (inHG)Wind Speed (mph)Wind DirectionWind Gust (mph)1hr. Precip / Rain Total (in.)Snow Depth
10:13 PM672731.91-4.34n6.95--
8:13 PM693338.69-3.48n7.82--
6:13 PM752940.57-6.08n10.43--
5:13 PM772841.38-6.08n11.3--
2:13 PM762840.53-6.95wsw11.3--
12:13 PM733342.18-6.08wnw10.43--
11:13 AM723139.7-6.95wnw9.56--
9:13 AM732737.03-2.61wnw6.08--
7:13 AM653435.94-5.21wnw6.95--
6:13 AM623735.43-6.08wnw7.82--
5:13 AM603834.32-3.48wnw5.21--
4:13 AM603733.65-4.34wnw6.95--
3:13 AM613533.15-4.34wnw6.95--
2:13 AM623534.03-4.34wnw7.82--
1:13 AM643334.32-4.34wnw6.08--
12:13 AM642931.11-3.48wnw4.34--
High: 75ºf @4:13 PM    Low: 55ºf @4:13 AM     Approx. Precipitation / Rain Total: 0 in.
Time (PDT)Temp. (ºf)Humidity (%)Dew Point (ºf)Barometer (inHG)Wind Speed (mph)Wind DirectionWind Gust (mph)1hr. Precip / Rain Total (in.)Snow Depth
11:13 PM653032.81-2.61wnw5.21--
10:13 PM653133.63-3.48wnw5.21--
9:13 PM652931.97-3.48wnw6.95--
4:13 PM752132.41-6.08wnw12.17--
10:13 AM721420.2-5.21wnw8.69--
9:13 AM701316.9-6.08wnw10.43--
8:13 AM681721.57-4.34wnw7.82--
4:13 AM554332.92-7.82wnw10.43--
3:13 AM564534.96-6.95wnw9.56--
2:13 AM594034.71-6.08wnw10.43--
1:13 AM613432.43-6.08wnw11.3--
12:13 AM633232.68-7.82wnw10.43--
High: 76ºf @3:13 PM    Low: 61ºf @4:13 AM     Approx. Precipitation / Rain Total: 0 in.
Time (PDT)Temp. (ºf)Humidity (%)Dew Point (ºf)Barometer (inHG)Wind Speed (mph)Wind DirectionWind Gust (mph)1hr. Precip / Rain Total (in.)Snow Depth
11:13 PM644039.19-6.08wnw10.43--
10:13 PM654241.34-5.21wnw8.69--
9:13 PM664242.24-5.21wnw8.69--
6:13 PM743443.84-6.08wnw10.43--
5:13 PM753444.71-6.08wnw10.43--
3:13 PM763143.16-6.08wsw13.03--
12:13 PM723844.99-6.95wsw12.17--
11:13 AM714347.36-6.95wsw11.3--
10:13 AM723744.29-6.95wsw9.56--
9:13 AM713844.1-4.34sw7.82--
7:13 AM664946.28-4.34sw7.82--
6:13 AM626148.39-5.21sw7.82--
4:13 AM616147.45-3.48sw6.08--
2:13 AM636048.89-3.48wsw9.56--
12:13 AM675148.27-5.21wsw9.56--
High: 72ºf @7:13 PM    Low: 69ºf @8:13 PM     Approx. Precipitation / Rain Total: 0 in.
Time (PDT)Temp. (ºf)Humidity (%)Dew Point (ºf)Barometer (inHG)Wind Speed (mph)Wind DirectionWind Gust (mph)1hr. Precip / Rain Total (in.)Snow Depth
8:13 PM695552.15-3.48wsw7.82--
7:13 PM724851.22-5.21wsw8.69--
Past Weather Disclaimer Note regarding "Approx. Precipitation / Rain Total"

Grapevine CA Past Weather Nearby

More Local Information

Bookmark and Share

Grapevine weather and traffic updates by locals

  • Mirika scott's report:

    We are stuff in traffic we are not moving at all because of a accident these cops seriously need to do a better job !! Why are you closing all the lanes I about to be in this traffic for 2 hours in 10mins people need to pay attention to the road it's not that hard people!!! I am so piss right now

    Tue, Jun 13th 11:42:51 PM PDT

  • Traveler from SF's report:

    We've been in complete stand still for last 1.5hrs

    Tue, Jun 13th 10:45:09 PM PDT

Write your own Grapevine, California report, forecast, or traffic update:

Please note by clicking on "Post" you acknowledge that you have read the Terms of Service and the Grapevine, CA report and/or forecast you are posting is in compliance with such terms. Be respectful. An inappropriate Grapevine, CA report and/or forecast will be removed by a moderator.